[[{"header":{"parameterUnit":"m.s-1","parameterCategory":1,"la1":30.2991,"la2":30.254,"lo1":-89.0895,"lo2":-89.0444,"dy":0.0017,"dx":0.0017,"nx":28,"ny":28,"refTime":"2025-11-29T09:00:00:Z","depth":0,"parameterNumber":2,"parameterNumberName":"U-component_of_WINDS"},"data":[0,0,0,0,0,0,0,0,0,0,0,0,0,0,0,0,0,0,0,0,0,0,0,0,0,0,0,0,0,0,0,0,0,0,0,0,0,0,0,0,0,0,0,0,0,0,0,0,0,0,0,0,0,0,0,0,0,0,-3.337,-3.337,0,-3.3354,-3.3354,-3.3354,-3.3199,-3.3195,-3.3191,-3.3188,-3.3176,-3.3179,-3.3182,0,0,0,0,0,0,0,0,0,0,0,0,0,-3.3271,-3.3274,-3.337,-3.337,-3.337,-3.3354,-3.3354,-3.3354,-3.32,-3.3195,-3.319,-3.3186,-3.3175,-3.3179,-3.3183,0,0,0,0,0,0,0,0,0,0,0,0,0,-3.3291,-3.3275,-3.337,-3.3291,-3.3284,-3.3354,-3.3354,-3.3354,-3.3201,-3.3195,-3.3189,-3.3184,-3.3174,-3.3178,-3.3183,-3.333,0,0,-3.3198,-3.3201,0,0,0,0,0,0,0,0,-3.329,-3.3295,-3.3303,-3.3297,-3.3289,-3.3273,-3.3315,-3.3346,-3.3202,-3.3233,-3.3188,-3.3181,-3.3213,-3.3215,-3.3224,-3.333,-3.3329,-3.3199,-3.3202,-3.3204,-3.3205,0,0,0,0,0,0,0,-3.3289,-3.3295,-3.3364,-3.3303,-3.3295,-3.3258,-3.3254,-3.332,-3.3256,-3.3229,-3.3218,-3.3218,-3.3208,-3.322,-3.3223,-3.3329,-3.3199,-3.3203,-3.3206,-3.3208,-3.3556,-3.3562,0,0,0,0,0,0,-3.3298,-3.3295,-3.3365,-3.3364,-3.3275,-3.3264,-3.326,-3.3284,-3.3255,-3.3244,-3.3223,-3.3211,-3.3214,-3.3217,-3.3222,-3.3394,-3.3204,-3.3209,-3.3211,-3.355,-3.3557,-3.3564,0,0,0,0,0,0,-3.3297,-3.3306,-3.3365,-3.3326,-3.3331,-3.3272,-3.33,-3.3287,-3.3298,-3.325,-3.3238,-3.3247,-3.321,-3.3215,-3.3305,-3.3391,-3.3211,-3.3215,-3.3542,-3.3552,-3.3561,-3.3738,0,0,0,0,0,0,-3.3294,-3.3306,-3.3361,-3.3328,-3.3333,-3.3448,-3.3305,-3.329,-3.3307,-3.3291,-3.3269,-3.326,-3.3206,-3.3298,-3.331,-3.3395,-3.3219,-3.3534,-3.3547,-3.3558,-3.3725,-3.3753,-3.3777,0,0,0,0,0,-3.3291,-3.3412,-3.3364,-3.3373,-3.34,-3.3453,-3.3456,-3.339,-3.3314,-3.3369,-3.3338,-3.326,-3.3379,-3.3309,-3.332,-3.3408,-3.3529,-3.3543,-3.3557,-3.3713,-3.3747,-3.3776,0,0,0,0,0,0,-3.3457,-3.3406,-3.3353,-3.3466,-3.3465,-3.3426,-3.3494,-3.3428,-3.345,-3.3434,-3.3352,-3.3349,-3.3452,-3.3438,-3.336,-3.355,-3.3441,-3.3458,-3.3555,-3.3587,-3.3613,-3.3616,-3.3223,0,0,0,0,0,-3.3507,-3.3552,-3.3505,-3.361,-3.3612,-3.3554,-3.3574,-3.3523,-3.3519,-3.3519,-3.3494,-3.3494,-3.3532,-3.3558,-3.359,-3.3721,-3.3715,-3.3787,-3.3813,-3.3835,-3.3852,-3.3922,-3.3955,-3.361,-3.361,-3.361,0,0,-3.361,-3.3588,-3.3622,-3.3643,-3.3636,-3.3687,-3.3554,-3.3613,-3.3651,-3.3528,-3.3611,-3.3593,-3.3588,-3.37,-3.3748,-3.3692,-3.3945,-3.3853,-3.3871,-3.3876,-3.394,-3.3973,-3.4002,-3.362,-3.3618,-3.3617,0,0,-3.3825,-3.3811,-3.3898,-3.3894,-3.3884,-3.3844,-3.3865,-3.3837,-3.382,-3.3902,-3.3811,-3.3855,-3.392,-3.3921,-3.393,-3.4146,-3.4076,-3.4158,-3.4296,-3.4366,-3.4393,-3.4416,-3.4496,-3.4525,-3.4174,-3.4175,-3.4175,0,-3.3955,-3.4027,-3.3951,-3.4017,-3.403,-3.3918,-3.4007,-3.4006,-3.4009,-3.4021,-3.3958,-3.4039,-3.4027,-3.4139,-3.4191,-3.4201,-3.4225,-3.4162,-3.4395,-3.4418,-3.4439,-3.4514,-3.4544,-3.4185,-3.4184,-3.4183,-3.4182,0,-3.4189,-3.424,-3.4311,-3.4315,-3.4336,-3.4413,-3.435,-3.438,-3.4327,-3.4295,-3.4381,-3.4363,-3.439,-3.4412,-3.4361,-3.4517,-3.4483,-3.4408,-3.4298,-3.4483,-3.4552,-3.458,-3.42,-3.4196,-3.4193,-3.419,0,0,-3.451,-3.447,-3.4498,-3.4499,-3.4481,-3.452,-3.4592,-3.4616,-3.4645,-3.465,-3.4711,-3.4768,-3.47,-3.471,-3.4658,-3.4719,-3.4894,-3.4637,-3.4636,-3.4688,-3.5068,-3.5126,-3.5161,-3.4847,-3.4852,-3.4856,-3.5069,0,-3.4719,-3.4839,-3.4773,-3.4903,-3.4951,-3.4845,-3.4908,-3.4905,-3.4877,-3.4914,-3.4882,-3.4926,-3.483,-3.4836,-3.4891,-3.4862,-3.497,-3.4845,-3.4905,-3.4908,-3.4913,-3.5196,-3.5258,-3.546,-3.5095,-3.51,-3.5103,0,-3.4979,-3.4995,-3.513,-3.5103,-3.512,-3.5178,-3.5196,-3.5232,-3.5227,-3.5202,-3.5214,-3.5148,-3.5218,-3.5107,-3.5204,-3.5121,-3.5141,-3.513,-3.5136,-3.5142,-3.5019,-3.5213,-3.5523,-3.5555,-3.5144,-3.5141,-3.5138,0,-3.5204,-3.5258,-3.5346,-3.535,-3.532,-3.5363,-3.5353,-3.5341,-3.5361,-3.5377,-3.539,-3.5414,-3.5429,-3.545,-3.5393,-3.5317,-3.55,-3.5383,-3.5484,-3.5486,-3.553,-3.5529,-3.5851,-3.5538,-3.5538,-3.5537,-3.5537,0,-3.5446,-3.5533,-3.5446,-3.5501,-3.5596,-3.552,-3.5617,-3.5595,-3.5586,-3.5636,-3.5545,-3.5595,-3.5515,-3.5557,-3.5512,-3.5602,-3.5608,-3.5592,-3.558,-3.5602,-3.5605,-3.5617,-3.5602,-3.5545,-3.5543,-3.5542,-3.554,0,-3.5714,-3.5659,-3.5748,-3.5712,-3.5705,-3.5778,-3.5747,-3.5798,-3.5762,-3.5827,-3.5837,-3.5783,-3.5827,-3.5771,-3.5811,-3.5781,-3.5904,-3.5869,-3.5906,-3.5897,-3.6003,-3.5995,-3.6347,-3.6391,-3.6047,-3.605,-3.6053,0,-3.5874,-3.5938,-3.5909,-3.5935,-3.593,-3.5974,-3.5993,-3.592,-3.5944,-3.5943,-3.5994,-3.603,-3.6056,-3.6133,-3.6098,-3.6128,-3.6095,-3.6216,-3.6099,-3.612,-3.6101,-3.6099,-3.6107,-3.6242,-3.6246,-3.6249,-3.6252,0,-3.6164,-3.6133,-3.6164,-3.6186,-3.6211,-3.6225,-3.6232,-3.626,-3.6183,-3.6215,-3.6259,-3.6279,-3.6319,-3.6358,-3.6378,-3.6369,-3.63,-3.6288,-3.6314,-3.6339,-3.6359,-3.6353,-3.5975,-3.6281,-3.6278,-3.6276,-3.6275,-3.6273,-3.6385,-3.6438,-3.6426,-3.6464,-3.6461,-3.647,-3.6516,-3.6486,-3.652,-3.6547,-3.6501,-3.6558,-3.6551,-3.6571,-3.657,-3.6614,-3.6562,-3.6599,-3.6609,-3.662,-3.6637,-3.6349,-3.6617,-3.6617,-3.6616,-3.6615,-3.6614,0,-3.6673,-3.666,-3.6695,-3.6708,-3.6738,-3.6666,-3.6671,-3.6702,-3.6752,-3.6751,-3.6777,-3.6829,-3.6866,-3.6833,-3.6864,-3.6906,-3.6875,-3.6917,-3.6915,-3.6915,-3.668,-3.6656,-3.6942,-3.6942,-3.6942,-3.6942,-3.6942,-3.6941,-3.6827,-3.6914,-3.6883,-3.6968,-3.6954,-3.7008,-3.7017,-3.7025,-3.7024,-3.7085,-3.7115,-3.7093,-3.708,-3.7109,-3.7141,-3.713,-3.7147,-3.7202,-3.7181,-3.6963,-3.6931,-3.69,-3.6878,-3.7205,-3.7205,-3.7411,-3.7413,-3.7415]},{"header":{"parameterUnit":"m.s-1","parameterCategory":1,"la1":30.2991,"la2":30.254,"lo1":-89.0895,"lo2":-89.0444,"dy":0.0017,"dx":0.0017,"nx":28,"ny":28,"refTime":"2025-11-29T09:00:00:Z","depth":0,"parameterNumber":3,"parameterNumberName":"V-component_of_WINDS"},"data":[0,0,0,0,0,0,0,0,0,0,0,0,0,0,0,0,0,0,0,0,0,0,0,0,0,0,0,0,0,0,0,0,0,0,0,0,0,0,0,0,0,0,0,0,0,0,0,0,0,0,0,0,0,0,0,0,0,0,-4.369,-4.369,0,-4.3696,-4.3696,-4.3696,-4.364,-4.3638,-4.3637,-4.3635,-4.364,-4.3642,-4.3643,0,0,0,0,0,0,0,0,0,0,0,0,0,-4.363,-4.3631,-4.369,-4.369,-4.369,-4.3696,-4.3696,-4.3696,-4.364,-4.3638,-4.3636,-4.3634,-4.364,-4.3641,-4.3643,0,0,0,0,0,0,0,0,0,0,0,0,0,-4.3648,-4.3632,-4.369,-4.3663,-4.3661,-4.3696,-4.3696,-4.3696,-4.364,-4.3638,-4.3636,-4.3633,-4.3639,-4.3641,-4.3643,-4.3704,0,0,-4.3651,-4.3652,0,0,0,0,0,0,0,0,-4.3647,-4.365,-4.3667,-4.3665,-4.3662,-4.3665,-4.3676,-4.3699,-4.3641,-4.3648,-4.3635,-4.3632,-4.365,-4.3651,-4.3657,-4.3705,-4.3705,-4.3651,-4.3652,-4.3653,-4.3654,0,0,0,0,0,0,0,-4.3646,-4.3649,-4.3692,-4.3667,-4.3664,-4.365,-4.365,-4.368,-4.3662,-4.3647,-4.3643,-4.3645,-4.3648,-4.3655,-4.3657,-4.3705,-4.3651,-4.3653,-4.3654,-4.3655,-4.3801,-4.3803,0,0,0,0,0,0,-4.3648,-4.3649,-4.3692,-4.3692,-4.3649,-4.3653,-4.3653,-4.3666,-4.3661,-4.3658,-4.3647,-4.3642,-4.3652,-4.3654,-4.3657,-4.3727,-4.3653,-4.3656,-4.3657,-4.3798,-4.3801,-4.3804,0,0,0,0,0,0,-4.3647,-4.3653,-4.3692,-4.3669,-4.3673,-4.3657,-4.3672,-4.3668,-4.3674,-4.3661,-4.3657,-4.3657,-4.3651,-4.3654,-4.3693,-4.3726,-4.3657,-4.3659,-4.3795,-4.3799,-4.3803,-4.3868,0,0,0,0,0,0,-4.3646,-4.3653,-4.3676,-4.367,-4.3675,-4.3728,-4.3674,-4.3669,-4.3679,-4.3673,-4.367,-4.3667,-4.3649,-4.369,-4.3695,-4.3728,-4.3661,-4.3792,-4.3797,-4.3801,-4.3863,-4.3874,-4.3883,0,0,0,0,0,-4.3644,-4.3694,-4.3677,-4.3683,-4.3704,-4.373,-4.3733,-4.3711,-4.3682,-4.3705,-4.3696,-4.3667,-4.3722,-4.3694,-4.37,-4.3734,-4.379,-4.3796,-4.3801,-4.3858,-4.3872,-4.3883,0,0,0,0,0,0,-4.3704,-4.3693,-4.3674,-4.3725,-4.3729,-4.3721,-4.3749,-4.3726,-4.3738,-4.3732,-4.3704,-4.3704,-4.3747,-4.3745,-4.3714,-4.3792,-4.3751,-4.3758,-4.3792,-4.3805,-4.3814,-4.3814,-4.3663,0,0,0,0,0,-4.3724,-4.3746,-4.3735,-4.3781,-4.3784,-4.3766,-4.3777,-4.376,-4.3763,-4.3764,-4.3758,-4.3762,-4.378,-4.3792,-4.3808,-4.3862,-4.386,-4.3889,-4.3899,-4.3907,-4.3913,-4.3941,-4.3953,-4.3822,-4.3822,-4.3822,0,0,-4.3764,-4.376,-4.3776,-4.3793,-4.3794,-4.3817,-4.3768,-4.3795,-4.3812,-4.3768,-4.3804,-4.38,-4.3802,-4.3849,-4.387,-4.3848,-4.3949,-4.3914,-4.3921,-4.3922,-4.3948,-4.396,-4.3971,-4.3826,-4.3825,-4.3825,0,0,-4.3848,-4.3849,-4.3886,-4.3888,-4.389,-4.3878,-4.3887,-4.3882,-4.3878,-4.3914,-4.3881,-4.39,-4.3932,-4.3935,-4.394,-4.4025,-4.3999,-4.4031,-4.4083,-4.411,-4.412,-4.4129,-4.4159,-4.417,-4.4037,-4.4037,-4.4037,0,-4.3898,-4.3932,-4.3908,-4.3937,-4.3945,-4.3906,-4.3943,-4.3946,-4.3954,-4.396,-4.3936,-4.3974,-4.3973,-4.4019,-4.404,-4.4046,-4.4055,-4.4031,-4.4121,-4.4129,-4.4137,-4.4165,-4.4177,-4.4041,-4.4041,-4.404,-4.404,0,-4.3992,-4.4016,-4.4046,-4.4054,-4.4065,-4.4098,-4.4079,-4.4093,-4.4075,-4.4065,-4.4101,-4.4099,-4.4113,-4.4122,-4.4105,-4.4166,-4.4153,-4.4126,-4.4083,-4.4154,-4.418,-4.419,-4.4047,-4.4045,-4.4044,-4.4043,0,0,-4.4116,-4.4109,-4.412,-4.4123,-4.4122,-4.414,-4.4171,-4.4185,-4.4197,-4.4203,-4.4228,-4.4255,-4.4229,-4.4236,-4.4218,-4.4242,-4.4309,-4.4212,-4.4211,-4.4229,-4.4375,-4.4395,-4.4408,-4.4291,-4.4293,-4.4295,-4.4374,0,-4.4198,-4.425,-4.4229,-4.4283,-4.4304,-4.4267,-4.4294,-4.4296,-4.4288,-4.4304,-4.4295,-4.4314,-4.428,-4.4283,-4.4305,-4.4296,-4.4337,-4.429,-4.4313,-4.4315,-4.4314,-4.4421,-4.4443,-4.4518,-4.4384,-4.4386,-4.4387,0,-4.43,-4.431,-4.4367,-4.4361,-4.4369,-4.4393,-4.4404,-4.442,-4.4422,-4.4414,-4.442,-4.4397,-4.4427,-4.4385,-4.4424,-4.4393,-4.4401,-4.4398,-4.44,-4.4401,-4.4355,-4.4424,-4.4541,-4.4552,-4.4403,-4.4401,-4.44,0,-4.4384,-4.4411,-4.4448,-4.4451,-4.4446,-4.4464,-4.4462,-4.4461,-4.447,-4.4479,-4.4485,-4.4497,-4.4504,-4.4514,-4.4495,-4.4466,-4.4537,-4.4493,-4.453,-4.4531,-4.4547,-4.4546,-4.4666,-4.4553,-4.4553,-4.4553,-4.4553,0,-4.4477,-4.4513,-4.4485,-4.4508,-4.4546,-4.4521,-4.456,-4.4554,-4.4554,-4.4574,-4.4543,-4.4563,-4.4536,-4.4554,-4.4539,-4.4573,-4.4577,-4.4571,-4.4566,-4.4573,-4.4574,-4.4578,-4.4572,-4.4556,-4.4555,-4.4555,-4.4554,0,-4.4577,-4.456,-4.4597,-4.4589,-4.4587,-4.4616,-4.4608,-4.4629,-4.4618,-4.4644,-4.4649,-4.4632,-4.465,-4.4632,-4.4649,-4.4639,-4.4685,-4.4674,-4.4685,-4.4681,-4.4719,-4.4716,-4.4846,-4.4861,-4.4739,-4.474,-4.4741,0,-4.4637,-4.4664,-4.4658,-4.4669,-4.4669,-4.4688,-4.4697,-4.4673,-4.4684,-4.4687,-4.4707,-4.4722,-4.4734,-4.4765,-4.4754,-4.4767,-4.4755,-4.4799,-4.4757,-4.4763,-4.4755,-4.4753,-4.4755,-4.4808,-4.481,-4.4811,-4.4812,0,-4.4746,-4.4736,-4.475,-4.4761,-4.4773,-4.4781,-4.4786,-4.4797,-4.4772,-4.4786,-4.4804,-4.4813,-4.483,-4.4846,-4.4856,-4.4854,-4.4829,-4.4825,-4.4834,-4.4842,-4.4847,-4.4844,-4.4708,-4.4822,-4.4821,-4.4821,-4.482,-4.482,-4.4827,-4.4849,-4.4847,-4.4864,-4.4865,-4.4871,-4.4889,-4.488,-4.4895,-4.4907,-4.4892,-4.4914,-4.4914,-4.4924,-4.4925,-4.4942,-4.4923,-4.4936,-4.494,-4.4943,-4.4948,-4.4845,-4.4944,-4.4943,-4.4943,-4.4943,-4.4943,0,-4.4934,-4.4931,-4.4946,-4.4954,-4.4967,-4.4942,-4.4946,-4.4959,-4.4979,-4.498,-4.4992,-4.5013,-4.5028,-4.5018,-4.503,-4.5046,-4.5035,-4.505,-4.5048,-4.5048,-4.4965,-4.4956,-4.5059,-4.5059,-4.5059,-4.5059,-4.5059,-4.5059,-4.4991,-4.5025,-4.5015,-4.5049,-4.5046,-4.5067,-4.5072,-4.5076,-4.5077,-4.5102,-4.5114,-4.5107,-4.5104,-4.5116,-4.5128,-4.5125,-4.5131,-4.515,-4.5143,-4.5065,-4.5054,-4.5043,-4.5034,-4.5152,-4.5152,-4.5224,-4.5225,-4.5225]}]]